カタログに戻る

RADIO 3

運用中アマチュア無線PO
NORAD 12997·PAYLOAD·🇷🇺 Russia

打ち上げ Dec 17, 1981 から Plesetsk Cosmodrome

Loading…

次のパス (今後24時間)

TLE

最新Source: Space-Track

元期: Sep 14, 2026, 08:06 UTC

1 12997U 81120A   26257.33784646 -.00000005  00000-0 -15417-3 0  9991
2 12997  82.9597 214.7844 0059820  78.6323  75.1957 12.15873590985538

AllMySatでRADIO 3をリアルタイム追跡

Download on the App Store